Flag for Germany Weather past 2 weeks in Kaufbeuren, Bavaria, Germany

Now
59 °F

Cool.


Feels Like: 60 °F
Forecast: 48 / 77 °F
Wind: 3 mph from Northeast

Location: Altenstadt Airport

Current Time: Aug 1, 2015 at 12:35:56 AM

Latest Report: Jul 31, 2015 at 11:20 PM


Visibility: N/A

Pressure: 29.98 "Hg (27.61 "Hg at 693m altitude)

Humidity: 63%

Dew point: 46 °F

Location of KaufbeurenLocation

Historic Weather in Kaufbeuren — Graph

°F

Kaufbeuren temperature yesterday

Maximum temperature yesterday: 70 °F (at 3:20 PM)
Minimum temperature yesterday: 45 °F (at 6:20 AM)
Average temperature yesterday: 59 °F

Past Weeks' High & Low Weather Summary

 TemperatureHumidityPressure
High91 °F (Jul 17, 3:20 PM)100% (Jul 27, 3:20 AM)30.21 "Hg (Jul 27, 3:20 AM)
Low45 °F (Jul 31, 6:20 AM)27% (Jul 17, 2:20 PM)29.77 "Hg (Jul 25, 3:20 AM)
Average66 °F69%30.00 "Hg
* Reported Jul 17 12:20 AM — Jul 31 11:20 PM, Kaufbeuren, Weather by CustomWeather, © 2015

Note: Actual official high and low records may vary slightly from our data, if they occured in-between our weather recording intervals... More about our weather records

Advertising

Kaufbeuren weather history for previous 24 hours

 ConditionsComfort  
Time TempWeatherWind HumidityBarometerVisibility
11:20 PM
Fri, Jul 31
59 °FCool.3 mph63%29.98 "HgN/A
10:20 PM59 °FCool.6 mph63%29.98 "HgN/A
9:20 PM64 °FMild.10 mph52%29.98 "HgN/A
8:20 PM66 °FPartly sunny.12 mph49%29.98 "HgN/A
7:20 PM68 °FPartly sunny.14 mph46%29.98 "HgN/A
6:20 PM68 °FPartly sunny.10 mph40%29.98 "HgN/A
5:20 PM70 °FPartly sunny.12 mph38%29.98 "HgN/A
4:20 PM70 °FPartly sunny.14 mph38%30.01 "HgN/A
3:20 PM70 °FScattered clouds.13 mph38%30.01 "HgN/A
2:20 PM68 °FScattered clouds.12 mph40%30.04 "HgN/A
1:20 PM66 °FScattered clouds.12 mph43%30.04 "HgN/A
12:20 PM64 °FPassing clouds.13 mph46%30.07 "HgN/A
11:20 AM63 °FPassing clouds.13 mph52%30.07 "HgN/A
10:20 AM61 °FPassing clouds.13 mph52%30.09 "HgN/A
9:20 AM59 °FPassing clouds.12 mph55%30.09 "HgN/A
8:20 AM54 °FPassing clouds.1 mph82%30.09 "HgN/A
7:20 AM45 °FPassing clouds.2 mph93%30.09 "HgN/A
6:20 AM45 °FPassing clouds.1 mph93%30.09 "HgN/A
5:20 AM46 °FPassing clouds.5 mph87%30.09 "HgN/A
4:20 AM48 °FCool.5 mph87%30.09 "HgN/A
3:20 AM50 °FCool.2 mph82%30.09 "HgN/A
2:20 AM52 °FCool.3 mph77%30.09 "HgN/A
1:20 AM50 °FCool.5 mph88%30.09 "HgN/A
12:20 AM54 °FCool.2 mph72%30.09 "HgN/A
Weather by CustomWeather, © 2015

See weather overviewHow to use our weather pages